This is the latest recevied weather packets stored in our database for station/object W2GUX. If no packets are shown the sender has not sent any weather packets the latest 10 day(s).
| Time | Temp. | Humidity | Pressure | Rain* | Wind** | Luminosity | Snow |
|---|---|---|---|---|---|---|---|
| 1777647004 | 14.44° C | 36% | 1009.8 hPa | 0 mm | - | - | - |
| 1777646704 | 14.44° C | 38% | 1009.9 hPa | 0 mm | - | - | - |
| 1777646404 | 13.89° C | 39% | 1009.9 hPa | 0 mm | - | - | - |
| 1777646103 | 13.89° C | 36% | 1009.9 hPa | 0 mm | - | - | - |
| 1777645804 | 13.89° C | 39% | 1009.9 hPa | 0 mm | - | - | - |
| 1777645504 | 13.33° C | 36% | 1010 hPa | 0 mm | - | - | - |
| 1777645203 | 13.33° C | 38% | 1009.9 hPa | 0 mm | - | - | - |
| 1777644904 | 13.33° C | 37% | 1009.9 hPa | 0 mm | - | - | - |
| 1777644604 | 12.78° C | 38% | 1009.9 hPa | 0 mm | - | - | - |
| 1777644004 | 13.33° C | 38% | 1010 hPa | 0 mm | - | - | - |
| 1777643704 | 13.33° C | 39% | 1010 hPa | 0 mm | - | - | - |
| 1777643403 | 12.78° C | 39% | 1010.1 hPa | 0 mm | - | - | - |
| 1777643104 | 12.22° C | 39% | 1010.1 hPa | 0 mm | - | - | - |
| 1777642803 | 12.22° C | 42% | 1010.1 hPa | 0 mm | - | - | - |
| 1777642504 | 12.22° C | 42% | 1010.2 hPa | 0 mm | - | - | - |
| 1777642203 | 12.22° C | 44% | 1010.2 hPa | 0 mm | - | - | - |
| 1777641904 | 11.67° C | 46% | 1010.2 hPa | 0 mm | - | - | - |
| 1777641603 | 11.11° C | 45% | 1010.2 hPa | 0 mm | - | - | - |
| 1777641304 | 11.11° C | 46% | 1010.2 hPa | 0 mm | - | - | - |
| 1777641004 | 11.11° C | 47% | 1010.3 hPa | 0 mm | - | - | - |
| 1777640703 | 10.56° C | 49% | 1010.3 hPa | 0 mm | - | - | - |
| 1777640404 | 10.56° C | 51% | 1010.3 hPa | 0 mm | - | - | - |
| 1777640103 | 10.56° C | 51% | 1010.3 hPa | 0 mm | - | - | - |
| 1777639804 | 10° C | 53% | 1010.3 hPa | 0 mm | - | - | - |
| 1777639503 | 10° C | 53% | 1010.3 hPa | 0 mm | - | - | - |
* Rain latest hour (hover to see other rain measurements)
** Current wind speed in m/s (hover to see current wind gust speed)